Time,TemperatureF,DewpointF,PressureIn,WindDirection,WindDirectionDegrees,WindSpeedMPH,WindSpeedGustMPH,Humidity,HourlyPrecipIn,Conditions,Clouds,dailyrainin,SolarRadiationWatts/m^2,SoftwareType,DateUTC
2013-06-17 00:02:00,62.0,34.0,-100.00,ESE,108,2.0,10.0,35,0.00,,,0.00,0.000000,,2013-06-17 06:02:00,
2013-06-17 00:33:00,62.0,35.0,-100.00,SE,136,6.0,7.0,37,0.00,,,0.00,0.000000,,2013-06-17 06:33:00,
2013-06-17 00:43:00,62.0,35.0,-100.00,SE,136,6.0,7.0,37,0.00,,,0.00,0.000000,,2013-06-17 06:43:00,
2013-06-17 00:53:00,62.0,35.0,-100.00,SE,136,6.0,7.0,37,0.00,,,0.00,0.000000,,2013-06-17 06:53:00,
2013-06-17 01:33:00,62.0,34.0,-100.00,SE,133,2.0,6.0,35,-99.99,,,0.00,0.000000,,2013-06-17 07:33:00,
2013-06-17 01:43:00,62.0,34.0,-100.00,SE,133,2.0,6.0,35,-99.99,,,0.00,0.000000,,2013-06-17 07:43:00,
2013-06-17 01:53:00,62.0,34.0,-100.00,SE,133,2.0,6.0,35,-99.99,,,0.00,0.000000,,2013-06-17 07:53:00,
2013-06-17 02:34:00,61.0,32.0,-100.00,ESE,123,2.0,7.0,34,-99.99,,,0.00,0.000000,,2013-06-17 08:34:00,
2013-06-17 02:43:00,61.0,32.0,-100.00,ESE,123,2.0,7.0,34,-99.99,,,0.00,0.000000,,2013-06-17 08:43:00,
2013-06-17 03:34:00,61.0,34.0,-100.00,ESE,110,1.0,5.0,36,-99.99,,,0.00,0.000000,,2013-06-17 09:34:00,
2013-06-17 09:43:00,64.0,40.0,-100.00,East,99,4.0,7.0,41,-99.99,,,0.00,475.000000,,2013-06-17 15:43:00,
2013-06-17 10:02:00,64.0,40.0,-100.00,East,99,4.0,7.0,41,-99.99,,,0.00,475.000000,,2013-06-17 16:02:00,
2013-06-17 10:33:00,67.0,41.0,-100.00,ESE,105,4.0,7.0,39,0.00,,,0.00,636.000000,,2013-06-17 16:33:00,
2013-06-17 10:43:00,67.0,41.0,-100.00,ESE,105,4.0,7.0,39,0.00,,,0.00,636.000000,,2013-06-17 16:43:00,
2013-06-17 10:53:00,67.0,41.0,-100.00,ESE,105,4.0,7.0,39,0.00,,,0.00,636.000000,,2013-06-17 16:53:00,
2013-06-17 11:02:00,67.0,41.0,-100.00,ESE,105,4.0,7.0,39,0.00,,,0.00,636.000000,,2013-06-17 17:02:00,
2013-06-17 11:33:00,71.0,41.0,-100.00,NNW,337,4.0,7.0,34,0.00,,,0.00,819.000000,,2013-06-17 17:33:00,
2013-06-17 11:43:00,71.0,41.0,-100.00,NNW,337,4.0,7.0,34,0.00,,,0.00,819.000000,,2013-06-17 17:43:00,
2013-06-17 11:52:00,71.0,41.0,-100.00,NNW,337,4.0,7.0,34,0.00,,,0.00,819.000000,,2013-06-17 17:52:00,
2013-06-17 12:01:00,71.0,41.0,-100.00,NNW,337,4.0,7.0,34,0.00,,,0.00,819.000000,,2013-06-17 18:01:00,
2013-06-17 12:33:00,75.0,43.0,-100.00,NNW,348,4.0,8.0,32,0.00,,,0.00,959.000000,,2013-06-17 18:33:00,
2013-06-17 12:43:00,75.0,43.0,-100.00,NNW,348,4.0,8.0,32,0.00,,,0.00,959.000000,,2013-06-17 18:43:00,
2013-06-17 12:53:00,75.0,43.0,-100.00,NNW,348,4.0,8.0,32,0.00,,,0.00,959.000000,,2013-06-17 18:53:00,
2013-06-17 13:02:00,75.0,43.0,-100.00,NNW,348,4.0,8.0,32,0.00,,,0.00,959.000000,,2013-06-17 19:02:00,
2013-06-17 13:33:00,75.0,42.0,-100.00,ESE,114,5.0,8.0,31,0.00,,,0.00,644.000000,,2013-06-17 19:33:00,
2013-06-17 13:43:00,75.0,42.0,-100.00,ESE,114,5.0,8.0,31,0.00,,,0.00,644.000000,,2013-06-17 19:43:00,
2013-06-17 13:54:00,75.0,42.0,-100.00,ESE,114,5.0,8.0,31,0.00,,,0.00,644.000000,,2013-06-17 19:54:00,
2013-06-17 14:02:00,75.0,42.0,-100.00,ESE,114,5.0,8.0,31,0.00,,,0.00,644.000000,,2013-06-17 20:02:00,
2013-06-17 14:43:00,74.0,35.0,-100.00,SSE,163,5.0,11.0,24,0.00,,,0.00,668.000000,,2013-06-17 20:43:00,
2013-06-17 14:52:00,74.0,35.0,-100.00,SSE,163,5.0,11.0,24,0.00,,,0.00,668.000000,,2013-06-17 20:52:00,
2013-06-17 15:01:00,74.0,35.0,-100.00,SSE,163,5.0,11.0,24,0.00,,,0.00,668.000000,,2013-06-17 21:01:00,
2013-06-17 16:53:00,75.0,41.0,-100.00,NNE,14,3.0,10.0,30,0.00,,,0.00,344.000000,,2013-06-17 22:53:00,
2013-06-17 17:02:00,75.0,41.0,-100.00,NNE,14,3.0,10.0,30,0.00,,,0.00,344.000000,,2013-06-17 23:02:00,
2013-06-17 17:33:00,75.0,36.0,-100.00,North,349,5.0,10.0,24,0.00,,,0.00,491.000000,,2013-06-17 23:33:00,
2013-06-17 17:43:00,75.0,36.0,-100.00,North,349,5.0,10.0,24,0.00,,,0.00,491.000000,,2013-06-17 23:43:00,
2013-06-17 17:53:00,75.0,36.0,-100.00,North,349,5.0,10.0,24,0.00,,,0.00,491.000000,,2013-06-17 23:53:00,
2013-06-17 18:01:00,75.0,36.0,-100.00,North,349,5.0,10.0,24,0.00,,,0.00,491.000000,,2013-06-18 00:01:00,
2013-06-17 18:43:00,75.0,38.0,-100.00,ESE,108,6.0,10.0,26,0.00,,,0.00,311.000000,,2013-06-18 00:43:00,
2013-06-17 18:52:00,75.0,38.0,-100.00,ESE,108,6.0,10.0,26,0.00,,,0.00,311.000000,,2013-06-18 00:52:00,
2013-06-17 19:01:00,75.0,38.0,-100.00,ESE,108,6.0,10.0,26,0.00,,,0.00,311.000000,,2013-06-18 01:01:00,
2013-06-17 19:34:00,73.0,36.0,-100.00,SSW,198,1.0,12.0,26,0.00,,,0.00,232.000000,,2013-06-18 01:34:00,
2013-06-17 19:44:00,73.0,36.0,-100.00,SSW,198,1.0,12.0,26,0.00,,,0.00,232.000000,,2013-06-18 01:44:00,
2013-06-17 19:53:00,73.0,36.0,-100.00,SSW,198,1.0,12.0,26,0.00,,,0.00,232.000000,,2013-06-18 01:53:00,
2013-06-17 20:02:00,73.0,36.0,-100.00,SSW,198,1.0,12.0,26,0.00,,,0.00,232.000000,,2013-06-18 02:02:00,
2013-06-17 20:34:00,72.0,35.0,-100.00,WSW,247,4.0,7.0,26,0.00,,,0.00,142.000000,,2013-06-18 02:34:00,
2013-06-17 20:43:00,72.0,35.0,-100.00,WSW,247,4.0,7.0,26,0.00,,,0.00,142.000000,,2013-06-18 02:43:00,
2013-06-17 20:53:00,72.0,35.0,-100.00,WSW,247,4.0,7.0,26,0.00,,,0.00,142.000000,,2013-06-18 02:53:00,
2013-06-17 21:02:00,72.0,35.0,-100.00,WSW,247,4.0,7.0,26,0.00,,,0.00,142.000000,,2013-06-18 03:02:00,
2013-06-17 21:34:00,70.0,37.0,-100.00,SE,134,2.0,10.0,30,0.00,,,0.00,75.000000,,2013-06-18 03:34:00,
2013-06-17 21:43:00,70.0,37.0,-100.00,SE,134,2.0,10.0,30,0.00,,,0.00,75.000000,,2013-06-18 03:43:00,
2013-06-17 22:01:00,70.0,37.0,-100.00,SE,134,2.0,10.0,30,0.00,,,0.00,75.000000,,2013-06-18 04:01:00,
2013-06-17 22:34:00,68.0,37.0,-100.00,WSW,251,7.0,12.0,32,0.02,,,0.02,4.000000,,2013-06-18 04:34:00,
2013-06-17 22:43:00,68.0,37.0,-100.00,WSW,251,7.0,12.0,32,0.02,,,0.02,4.000000,,2013-06-18 04:43:00,
2013-06-17 22:53:00,68.0,37.0,-100.00,WSW,251,7.0,12.0,32,0.02,,,0.02,4.000000,,2013-06-18 04:53:00,